Location: ??????
(55.2000°N, 38.3000°E)
Time: 00:30:26
(UTC+00:00)

Cosmos 2333 Rocket - Pass Details

Date: 15 November 2025
Orbit: 837 x 865 km, 70.8° (Epoch: 12 December)

Event Time Altitude Azimuth Distance (km) Brightness Sun altitude
Exits shadow 02:17:28 21° 334° (NNW) 1,840 3.7 -22.8°
Maximum altitude 02:17:50 21° 339° (NNW) 1,835 3.7 -22.7°
Drops below altitude 10° 02:22:11 10° 28° (NNE) 2,517 5.0 -22.1°
Sets 02:25:18 0° 44° (NE) 3,458 6.0 -21.6°
